STARLINK-34362 (64292 NORAD) Tracking and Keplerian Element Data

This shows tracking and keplerian element data for the satellite.

Feedback or suggestion? Click here.




ElementValue
Catalog64292
NameSTARLINK-34362
Epoch Orbit3093
Epoch Day354.22669132
Epoch Year2025
RAAN34.8992
Inclination70.0039
Eccentricity0.0007903
Argument of Perigee252.3642
Mean Anonmoly107.6655
Mean Motion14.99327271
Decay Rate0.00599048
L11 64292U 25123B 25354.22669132 .00599048 00000+0 45978-1 0 9994
L22 64292 70.0039 34.8992 0007903 252.3642 107.6655 14.99327271 30932



Live tracking and technical data element details for STARLINK-34362 (NORAD 64292). STARLINK-34362 can be tracked NOW for your location showing map with azimuth and elevation plus other details from your city location.







IsCatalogInMostPopularTable: catalog: 64292, numindb: 4
Update: records affected: 1



GetName: 64292 STARLINK-34362

Hit Count: updated at: Sun, 08 Feb 2026 18:02:17 GMT